Location: Unspecified
(48.8656°N, 0.0000°E)
Time: 22:21:20
(UTC+00:00)

SR - All Passes

Search period start: 25 June 2019 00:00
Search period end: 05 July 2019 00:00
Orbit: 582 x 874 km, 66.7° (Epoch: 24 June)

Date Brightness Start Highest point End Pass type
(mag) Time Alt. Az. Time Alt. Az. Time Alt. Az.
25 Jun - 02:24:04 10° S 02:27:42 28° ESE 02:31:26 10° NE visible
25 Jun - 04:05:34 10° WSW 04:09:34 39° NW 04:13:46 10° NNE daylight
25 Jun - 05:51:14 10° NW 05:52:55 12° NNW 05:54:37 10° N daylight
25 Jun - 09:18:08 10° N 09:21:16 17° NNE 09:24:34 10° ENE daylight
25 Jun - 10:59:22 10° NNW 11:04:10 66° NE 11:09:23 10° SE daylight
25 Jun - 12:42:05 10° WNW 12:45:53 22° WSW 12:49:53 10° SSW daylight
26 Jun - 01:36:12 10° SE 01:38:27 14° ESE 01:40:44 10° ENE visible
26 Jun - 03:15:36 10° SW 03:19:50 75° NW 03:24:14 10° NNE visible
26 Jun - 04:59:52 10° WNW 05:02:41 17° NNW 05:05:34 10° N daylight
26 Jun - 08:29:02 10° N 08:31:03 12° NNE 08:33:08 10° NE daylight
26 Jun - 10:09:53 10° NNW 10:14:23 38° NE 10:19:14 10° ESE daylight
26 Jun - 11:51:53 10° NW 11:56:29 40° WSW 12:01:26 10° S daylight
27 Jun - 02:26:08 10° SSW 02:30:16 55° ESE 02:34:32 10° NE visible
27 Jun - 04:09:01 10° W 04:12:36 25° NW 04:16:18 10° NNE daylight
27 Jun - 09:20:31 10° NNW 09:24:27 25° NE 09:28:37 10° E daylight
27 Jun - 11:02:04 10° NW 11:06:57 75° WSW 11:12:15 10° SSE daylight
27 Jun - 12:46:18 10° W 12:48:19 12° WSW 12:50:23 10° SW daylight
28 Jun - 01:37:18 10° S 01:40:52 27° ESE 01:44:31 10° NE visible
28 Jun - 03:18:38 10° WSW 03:22:41 42° NW 03:26:55 10° NNE daylight
28 Jun - 05:04:09 10° NW 05:05:59 12° NNW 05:07:52 10° N daylight
28 Jun - 08:31:16 10° N 08:34:22 17° NNE 08:37:36 10° ENE daylight
28 Jun - 10:12:29 10° NNW 10:17:17 63° NE 10:22:31 10° SE daylight
28 Jun - 11:55:07 10° WNW 11:59:03 24° WSW 12:03:13 10° SSW daylight
29 Jun - 00:49:35 10° SE 00:51:38 13° ESE 00:53:41 10° ENE visible
29 Jun - 02:28:42 10° SW 02:32:57 79° NW 02:37:23 10° NE visible
29 Jun - 04:12:51 10° WNW 04:15:45 17° NNW 04:18:46 10° NNE daylight
29 Jun - 07:42:10 10° N 07:44:07 12° NNE 07:46:09 10° NE daylight
29 Jun - 09:23:01 10° NNW 09:27:30 37° NE 09:32:20 10° ESE daylight
29 Jun - 11:04:58 10° NW 11:09:38 43° WSW 11:14:40 10° S daylight
30 Jun - 01:39:17 10° SSW 01:43:23 51° ESE 01:47:39 10° NE visible
30 Jun - 03:22:04 10° W 03:25:41 26° NW 03:29:29 10° NNE daylight
30 Jun - 08:33:39 10° NNW 08:37:33 24° NE 08:41:41 10° E daylight
30 Jun - 10:15:11 10° NW 10:20:06 79° WSW 10:25:26 10° SSE daylight
30 Jun - 11:59:08 10° WNW 12:01:30 13° WSW 12:03:55 10° SW daylight
01 Jul - 00:50:31 10° SSE 00:54:00 25° ESE 00:57:36 10° ENE visible
01 Jul - 02:31:42 10° WSW 02:35:47 44° NW 02:40:04 10° NNE visible
01 Jul - 04:17:04 10° NW 04:19:03 13° NNW 04:21:05 10° N daylight
01 Jul - 07:44:23 10° N 07:47:27 17° NNE 07:50:38 10° ENE daylight
01 Jul - 09:25:36 10° NNW 09:30:26 60° NE 09:35:40 10° SE daylight
01 Jul - 11:08:09 10° WNW 11:12:13 25° WSW 11:16:31 10° SSW daylight
02 Jul - 00:02:59 10° SE 00:04:48 12° ESE 00:06:37 10° E visible
02 Jul - 01:41:49 10° SW 01:46:04 84° NW 01:50:31 10° NE visible
02 Jul - 03:25:50 10° WNW 03:28:50 18° NNW 03:31:57 10° NNE daylight
02 Jul - 06:55:18 10° N 06:57:12 12° NNE 06:59:09 10° NE daylight
02 Jul - 08:36:09 10° NNW 08:40:37 36° NE 08:45:26 10° ESE daylight
02 Jul - 10:18:04 10° NW 10:22:48 45° WSW 10:27:54 10° S daylight
03 Jul - 00:52:27 10° SSW 00:56:31 48° ESE 01:00:46 10° NE visible
03 Jul - 02:35:05 10° W 02:38:46 27° NW 02:42:39 10° NNE visible
03 Jul - 04:22:12 10° NNW 04:22:27 10° NNW 04:22:42 10° NNW daylight
03 Jul - 07:46:47 10° NNW 07:50:39 23° NE 07:54:45 10° E daylight
03 Jul - 09:28:18 10° NW 09:33:14 83° WSW 09:38:37 10° SSE daylight
03 Jul - 11:12:02 10° WNW 11:14:40 14° WSW 11:17:24 10° SW daylight
04 Jul - 00:03:45 10° SSE 00:07:09 24° ESE 00:10:40 10° ENE visible
04 Jul - 01:44:46 10° WSW 01:48:54 46° NW 01:53:13 10° NNE visible
04 Jul - 03:30:00 10° NW 03:32:07 13° NNW 03:34:19 10° N daylight
04 Jul - 06:57:31 10° N 07:00:32 16° NNE 07:03:41 10° ENE daylight
04 Jul - 08:38:43 10° NNW 08:43:34 57° NE 08:48:48 10° SE daylight
04 Jul - 10:21:13 10° WNW 10:25:23 26° WSW 10:29:49 10° SSW daylight
04 Jul - 23:16:27 10° SE 23:17:57 12° ESE 23:19:28 10° E visible
